Weather Roundup
Issued by NWS

Home | Current Version | Previous Version | Graphics & Text | Print | Product List | Glossary Off
Versions: 1 2 3 4 5 6 7 8 9 10 11 12 13 14 15 16 17 18 19 20 21 22 23 24 25 26 27 28 29 30 31 32 33 34 35 36 37 38 39 40 41 42 43 44 45 46 47 48 49 50

000
NZUS93 KARX 250010
HRRWXR

CURRENT HOURLY OBSERVATIONS ACROSS
MUCH OF THE UPPER MISSISSIPPI VALLEY
NATIONAL WEATHER SERVICE LA CROSSE WI
700 PM CDT TUE MAY 24 2016


...SOUTHEAST MINNESOTA...


CITY           SKY/WX    TMP DP  RH WIND       PRES   REMARKS
ROCHESTER      SUNNY     79  57  46 S6        29.91F
ROCHESTER/MAYO FAIR      80  55  41 S5        29.90F
WINONA         SUNNY     81  55  41 SE3       29.90S
AUSTIN         SUNNY     77  61  57 S5        29.90F
ALBERT LEA     SUNNY     81  55  41 SE7       29.89F
DODGE CENTER   SUNNY     81  54  39 S10       29.91S
PRESTON        SUNNY     79  55  44 SE6       29.92F
OWATONNA       SUNNY     81  54  39 S9        29.89S
FARIBAULT      MOSUNNY   81  55  41 SE8       29.88S
$$

...ELSEWHERE IN MINNESOTA...


CITY           SKY/WX    TMP DP  RH WIND       PRES   REMARKS
MINNEAPOLIS    PTSUNNY   81  49  32 N6        29.88S
INTNL FALLS    SUNNY     65  54  67 N14       29.92R
DULUTH         MOSUNNY   60  56  86 E14       29.93R
RED WING       CLOUDY    81  61  50 CALM      29.87S
REDWOOD FALLS  PTSUNNY   77  56  48 NE10G17   29.85R
MANKATO        SUNNY     84  45  24 SW7       29.86F
WORTHINGTON    SUNNY     80  57  45 S8        29.88
FAIRMONT         N/A     82  50  32 CALM      29.88S VSB 1/2
$$

...SOUTHWEST WISCONSIN...


CITY           SKY/WX    TMP DP  RH WIND       PRES   REMARKS
LA CROSSE      SUNNY     82  57  42 SE3       29.89F
PRAIRIE DU CHI SUNNY     82  57  42 CALM      29.89R
BOSCOBEL       SUNNY     84  57  39 CALM      29.90S
LONE ROCK      MOSUNNY   82  58  43 NW3       29.91S
PLATTEVILLE    SUNNY     82  60  48 W5        29.92S
FORT MC COY    SUNNY     80  56  44 CALM      29.92S
MAUSTON-NEW LI CLEAR     81  59  47 W6        29.91F
VIROQUA        FAIR      80  54  40 CALM      29.94R
WIS DELLS      SUNNY     80  55  41 W7        29.92S
$$

...ELSEWHERE IN WISCONSIN...


CITY           SKY/WX    TMP DP  RH WIND       PRES   REMARKS
MILWAUKEE      CLOUDY    72  60  66 NE7       29.92R
MADISON        PTSUNNY   81  60  48 VRB3      29.91F
GREEN BAY      SUNNY     81  57  43 W6        29.90R
EAU CLAIRE     SUNNY     81  50  33 W7        29.89S
BLACK RVR FLS  FAIR      81  50  33 SW6       29.90F
MEDFORD        SUNNY     75  58  57 SW3       29.93S
WAUSAU         MOSUNNY   79  55  43 W8        29.91R
WIS RAPIDS     SUNNY     80  55  42 W6        29.92F
MARSHFIELD     MOSUNNY   79  54  41 W8        29.91S
RICE LAKE      SUNNY     78  51  38 W6        29.92F
$$

...NORTHEAST IOWA...


CITY           SKY/WX    TMP DP  RH WIND       PRES   REMARKS
WATERLOO       SUNNY     83  58  42 CALM      29.88S
DUBUQUE        CLOUDY    81  62  52 CALM      29.92R
DECORAH        SUNNY     81  57  44 CALM      29.90S
MASON CITY     SUNNY     79  64  60 CALM      29.91F HAZE
CHARLES CITY   SUNNY     82  55  39 CALM      29.90S
OELWEIN        SUNNY     82  59  44 SW5       29.90S
$$

...ELSEWHERE IN IOWA...


CITY           SKY/WX    TMP DP  RH WIND       PRES   REMARKS
DES MOINES     MOSUNNY   82  58  43 S8        29.89R
IOWA CITY      MOSUNNY   83  55  38 SW6       29.91R
FORT DODGE     SUNNY     79  61  53 SE6       29.91S
MARSHALLTOWN   SUNNY     82  60  47 CALM      29.88S
CEDAR RAPIDS   MOSUNNY   82  64  54 S10       29.89R
$$

...NORTHERN ILLINOIS...


CITY           SKY/WX    TMP DP  RH WIND       PRES   REMARKS
CHICAGO-OHARE  PTSUNNY   84  49  29 S9        29.92R
CHICAGO-MIDWAY PTSUNNY   85  50  29 SW10G20   29.93R
MOLINE         CLOUDY    84  59  42 SW8       29.90R
ROCKFORD       CLOUDY    85  54  34 SW8       29.93R
PEORIA         CLOUDY    80  61  52 S8        29.93S
$$

NOTE: "FAIR" INDICATES FEW OR NO CLOUDS BELOW 12,000 FEET WITH NO
SIGNIFICANT WEATHER AND/OR OBSTRUCTIONS TO VISIBILITY. WIND
SPEEDS ARE IN MILES-PER-HOUR.




USA.gov is the U.S. government's official web portal to all federal, state and local government web resources and services.